CDT,Max TemperatureF,Mean TemperatureF,Min TemperatureF,Max Dew PointF,MeanDew PointF,Min DewpointF,Max Humidity, Mean Humidity, Min Humidity, Max Sea Level PressureIn, Mean Sea Level PressureIn, Min Sea Level PressureIn, Max VisibilityMiles, Mean VisibilityMiles, Min VisibilityMiles, Max Wind SpeedMPH, Mean Wind SpeedMPH, Max Gust SpeedMPH,PrecipitationIn, CloudCover, Events, WindDirDegrees
2013-6-1,90,83,75,76,75,73,91,75,59,29.92,29.89,29.86,10,10,10,20,11,23,T,5,Rain,173
2013-6-2,87,78,69,75,70,66,100,78,55,30.04,29.94,29.88,10,8,1,22,6,29,0.59,4,Rain,356
2013-6-3,90,79,67,72,68,65,90,67,44,29.95,29.90,29.83,10,10,9,35,6,38,0.00,2,,355
2013-6-4,91,82,73,73,71,68,94,71,47,29.94,29.88,29.83,10,10,6,26,3,39,0.00,3,,157
2013-6-5,92,82,72,76,73,71,100,78,56,29.89,29.85,29.77,10,8,2,14,6,18,0.00,2,,102
2013-6-6,92,80,68,76,71,62,97,77,56,29.87,29.82,29.74,10,9,2,31,6,41,0.24,5,Rain-Thunderstorm,100
2013-6-7,88,78,67,70,67,64,100,74,48,29.94,29.89,29.84,10,10,7,14,6,17,0.00,3,,343
2013-6-8,89,79,69,71,68,64,90,73,55,29.93,29.89,29.85,10,10,7,16,6,22,0.00,2,,154
2013-6-9,91,81,71,75,71,70,93,79,64,29.96,29.91,29.85,10,9,1,20,5,25,0.34,3,Rain-Thunderstorm,119
2013-6-10,90,80,70,76,72,70,100,82,63,30.00,29.96,29.94,10,7,0,14,4,29,0.00,2,Fog,171
2013-6-11,92,82,72,77,75,72,100,78,56,30.06,30.02,29.99,10,9,5,15,5,31,0.00,2,,173
2013-6-12,92,84,75,77,75,74,94,77,59,30.08,30.04,29.99,10,9,6,14,7,20,0.00,1,,180
2013-6-13,96,86,75,76,74,70,100,73,46,30.07,30.00,29.91,10,9,1,14,5,16,0.00,2,,230
2013-6-14,96,85,74,78,74,69,100,76,52,30.00,29.95,29.87,10,8,2,31,5,38,0.16,3,Rain-Thunderstorm,264
2013-6-15,92,83,73,79,74,71,93,76,59,29.99,29.95,29.92,10,10,3,16,5,32,0.09,2,Rain,219
2013-6-16,92,83,73,75,73,70,100,76,52,30.04,29.98,29.95,10,10,6,30,6,33,0.00,1,,199
2013-6-17,93,84,74,76,73,71,94,73,52,30.01,29.96,29.91,10,10,9,17,7,23,0.00,1,,205
2013-6-18,90,82,74,77,74,70,94,77,59,29.99,29.96,29.89,10,10,6,22,7,28,0.06,3,Rain,200
2013-6-19,91,83,74,76,74,70,94,79,63,30.00,29.98,29.93,10,8,1,17,4,24,0.25,4,Rain,178
2013-6-20,93,84,74,77,74,71,94,73,52,30.09,30.04,29.99,10,9,6,14,4,21,T,1,,189
2013-6-21,93,84,74,78,73,70,100,75,49,30.11,30.06,30.03,10,7,0,25,4,31,T,2,Fog,201
2013-6-22,89,81,72,77,73,70,100,82,63,30.09,30.03,29.97,10,8,1,30,4,41,0.76,2,Rain,151
2013-6-23,91,82,73,76,73,71,94,73,52,30.05,30.00,29.97,10,10,7,14,5,17,0.10,2,Rain,168
2013-6-24,92,84,75,79,75,73,94,77,59,30.09,30.05,30.00,10,9,1,21,8,30,0.58,3,Rain,179
2013-6-25,92,84,76,76,74,73,94,75,56,30.06,30.02,29.97,10,10,10,15,8,26,0.00,1,,172
2013-6-26,96,86,76,76,74,69,91,69,46,30.02,29.98,29.95,10,10,9,16,7,21,0.00,1,,187
2013-6-27,96,85,74,75,73,70,100,73,46,30.03,29.98,29.93,10,9,1,14,5,16,0.00,1,,222
2013-6-28,96,85,74,77,74,69,94,69,43,29.98,29.91,29.81,10,10,7,14,8,28,0.00,1,,247
2013-6-29,101,89,76,77,73,68,91,64,36,29.84,29.78,29.70,10,10,9,17,8,23,0.00,1,,282
2013-6-30,97,85,72,76,64,55,94,61,28,29.83,29.80,29.75,10,10,9,15,7,39,0.00,1,,344